Location: Saddleback Butte
(34.6776°N, 117.8050°W)
Time: 00:28:41
(UTC-07:00)

Iridium 35 - Visible Passes

Search period start: 19 August 2017 00:00
Search period end: 29 August 2017 00:00
Orbit: 776 x 779 km, 86.4° (Epoch: 18 August)

Date Brightness Start Highest point End Pass type
(mag) Time Alt. Az. Time Alt. Az. Time Alt. Az.
19 Aug 6.8 21:34:43 17° NE 21:34:43 17° NE 21:36:36 10° NE visible
19 Aug 6.9 23:15:10 26° NW 23:15:10 26° NW 23:17:56 10° NNW visible
20 Aug 6.3 22:41:35 37° NNW 22:41:35 37° NNW 22:44:46 10° N visible
21 Aug 6.0 22:07:58 37° NNE 22:07:58 37° NNE 22:11:13 10° N visible
21 Aug 7.8 23:48:25 12° WNW 23:48:25 12° WNW 23:49:19 10° NW visible
22 Aug 6.3 21:34:20 26° NE 21:34:20 26° NE 21:37:14 10° NNE visible
22 Aug 7.2 23:14:47 21° WNW 23:14:47 21° WNW 23:17:34 10° NNW visible
23 Aug 6.8 21:00:42 15° ENE 21:00:42 15° ENE 21:02:36 10° NE visible
23 Aug 6.4 22:41:09 36° NW 22:41:09 36° NW 22:44:42 10° NNW visible
24 Aug 5.6 22:07:29 51° N 22:07:29 51° N 22:11:22 10° N visible
25 Aug 5.7 21:33:48 40° NE 21:33:48 40° NE 21:37:39 10° NNE visible
25 Aug 7.5 23:14:15 16° WNW 23:14:15 16° WNW 23:16:50 10° NW visible
26 Aug 6.3 21:00:05 23° ENE 21:00:05 23° ENE 21:03:29 10° NNE visible
26 Aug 6.7 22:40:32 30° WNW 22:40:32 30° WNW 22:44:28 10° NNW visible
27 Aug 6.9 20:26:21 12° ENE 20:26:21 12° ENE 20:28:15 10° NE visible
27 Aug 5.5 22:06:48 56° WNW 22:06:48 56° WNW 22:11:23 10° N visible
28 Aug 5.0 21:33:01 68° ENE 21:33:01 68° ENE 21:37:54 10° N visible
28 Aug 7.8 23:13:28 10° W 23:13:55 11° WNW 23:14:59 10° WNW visible
